Location: Kelshall
(52.0000°N, 0.0500°W)
Time: 03:59:57
(UTC+00:00)

CZ-4C R/B - Pass Details

Date: 18 September 2020
Orbit: 627 x 1375 km, 63.4° (Epoch: 19 October)

Event Time Altitude Azimuth Distance (km) Brightness Sun altitude
Exits shadow 23:01:59 20° 51° (NE) 1,992 4.3 -35.5°
Drops below altitude 10° 23:03:51 10° 48° (NE) 2,683 5.0 -35.6°
Sets 23:06:42 0° 46° (NE) 3,759 5.9 -35.7°
